Notices

Please take our survey and provide feedback: https://eccc.sondage-survey.ca/f/LanguageSelection.aspx?s=442ca660-fcf1-47c0-95a9-59707d6fd709

Please note that for the Engineering Climate Datasets, IDF dataset is available through this link.  Intensity-Duration-Frequency (IDF) Files: Includes the latest version of short-duration rainfall Intensity-Duration-Frequency (IDF) statistics in the form of tables and graphs with accompanying documentation for various locations across Canada.  Current IDF files can be accessed through our station finder application or downloaded for each province and territory across Canada.  In addition, historical versions of IDF files are also available for download.  Updates of IDF files are provided approximately every two years depending on the availability of data.   Thank you for your patience as we enhance our systems.

Hourly Data Report for June 24, 2020

TRENTON A
ONTARIO
Current Station Operator: DND

44°07'00.000" N
77°32'00.000" W
86.30 m
6158875
71621
YTR

Download Data

Hourly Data (June 2020)
Hourly Data Report for June 24, 2020
TIME
LST
Temp Definition
°C
Dew Point Definition
°C
Rel Hum Definition
%
Precip. Amount Definition
mm

Wind Dir Definition
10's deg

Wind Spd Definition
km/h
Visibility Definition
km
Stn Press Definition
kPa
Hmdx Definition


Wind Chill Definition


Weather Definition


00:00 20.2 17.2 83   23 34 24.1 99.01 26   Cloudy
01:00 19.0 15.4 80   24 24 24.1 99.09     Mostly Cloudy
02:00 18.5 15.0 80   24 24 24.1 99.09     Cloudy
03:00 18.8 14.2 75   24 28 24.1 99.09     Cloudy
04:00 18.2 13.0 72   25 31 24.1 99.14     Mostly Cloudy
05:00 17.8 13.0 74   25 30 24.1 99.18     Cloudy
06:00 17.7 13.0 74   24 26 24.1 99.24     Mostly Cloudy
07:00 18.0 13.5 75   24 31 24.1 99.25     Mostly Cloudy
08:00 17.4 13.4 77   24 41 24.1 99.28     Mostly Cloudy
09:00 17.6 13.3 76   24 31 24.1 99.34     Mostly Cloudy
10:00 18.5 14.2 76   24 31 24.1 99.39     Mostly Cloudy
11:00 18.5 13.6 73   23 28 24.1 99.45     Mostly Cloudy
12:00 19.3 13.3 68   23 28 24.1 99.49     Mostly Cloudy
13:00 18.7 12.9 69   22 24 24.1 99.57     Mostly Cloudy
14:00 20.3 13.0 63   24 30 24.1 99.62     Mostly Cloudy
15:00 20.6 11.4 56   23 28 24.1 99.64     Mainly Clear
16:00 19.9 10.6 55   23 30 24.1 99.65     Mainly Clear
17:00 20.3 12.0 59   23 28 24.1 99.64     Mainly Clear
18:00 19.3 11.0 59   24 26 24.1 99.69     Mostly Cloudy
19:00 19.1 10.5 57   26 18 24.1 99.75     Mostly Cloudy
20:00 18.8 11.1 61   26 18 24.1 99.79     Mostly Cloudy
21:00 18.0 12.9 72   23 18 24.1 99.80     Mostly Cloudy
22:00 17.2 13.3 78   23 21 24.1 99.79     Mainly Clear
23:00 16.9 13.4 80   23 21 24.1 99.79     Mainly Clear

Notes on Data Quality.

Legend

  • E = Estimated
  • M = Missing
  • NA = Not Available*
  • [empty] = Indicates an unobserved value
Date modified: